Regional Weather Roundup
Issued by NWS

Home | Current Version | Previous Version | Graphics & Text | Print | Product List | Glossary On
Versions: 1 2 3 4 5 6 7 8 9 10 11 12 13 14 15 16 17 18 19 20 21 22 23 24 25 26 27 28 29 30 31 32 33 34 35 36 37 38 39 40 41 42 43 44 45 46 47 48 49 50
000
ASUS43 KBIS 230020
RWRND

NORTH DAKOTA REGIONAL WEATHER ROUNDUP
NATIONAL WEATHER SERVICE BISMARCK ND
700 PM CDT TUE JUL 22 2014

NOTE: "FAIR" INDICATES FEW OR NO CLOUDS BELOW 12,000 FEET WITH NO
SIGNIFICANT WEATHER AND/OR OBSTRUCTIONS TO VISIBILITY.


NDZ001>003-009>011-017-230100-
NORTHWEST NORTH DAKOTA

CITY           SKY/WX    TMP DP  RH WIND       PRES   REMARKS
WILLISTON      PTSUNNY   84  47  27 NW8       30.17F
6HR MIN TEMP:  80; 6HR MAX TEMP:  88;

MINOT          PTSUNNY   77  60  55 NE8       30.20S
MINOT AFB      MOSUNNY   77  61  58 E7        30.20R
$$

NDZ018>021-031>035-040>046-230100-
SOUTHWEST NORTH DAKOTA

CITY           SKY/WX    TMP DP  RH WIND       PRES   REMARKS
BISMARCK       SUNNY     80  59  48 E6        30.19F
6HR MIN TEMP:  76; 6HR MAX TEMP:  82;

DICKINSON      PTSUNNY   75  62  64 E7        30.21R
GARRISON         N/A     78  62  57 E6        30.20S
6HR MIN TEMP:  74; 6HR MAX TEMP:  80;

HETTINGER ARPT MOSUNNY   76  57  51 E13       30.21S
$$

NDZ004>008-012>016-024-026-027-054-230100-
NORTHEAST NORTH DAKOTA

CITY           SKY/WX    TMP DP  RH WIND       PRES   REMARKS
GRAND FORKS    MOSUNNY   75  58  55 N10       30.18R
GRND FRKS AFB  SUNNY     75  59  57 N10       30.20R
DEVILS LAKE    CLOUDY    75  57  53 SE5       30.20S
$$

NDZ022-023-025-028>030-036>039-047>053-230100-
SOUTHEAST NORTH DAKOTA

CITY           SKY/WX    TMP DP  RH WIND       PRES   REMARKS
FARGO          SUNNY     77  57  50 N13       30.18R
6HR MIN TEMP:  77; 6HR MAX TEMP:  79;

JAMESTOWN      MOSUNNY   79  60  52 N6        30.20S
$$



USA.gov is the U.S. government's official web portal to all federal, state and local government web resources and services.